GW2652 Weather Reports


Display with metric or nautical units.
time (UTC)temp
F
wind
direction
speed
MPH
gust
MPH
rain 1hr
in
rain 24hr
in
rain mn
in
humidity
%
barometer
mb
20260505231826 59 161 0.0 0.0 0.00 0.22 0.22 99 1005.7
20260505231324 59 161 0.0 0.0 0.00 0.22 0.22 99 1005.2
20260505230822 60 160 1.0 1.0 0.00 0.22 0.22 99 1005.4
20260505230319 60 159 0.0 0.0 0.05 0.22 0.22 99 1005.2
20260505225815 60 159 0.0 0.0 0.05 0.22 0.22 99 1005.2
20260505225313 60 161 0.0 0.0 0.00 0.21 0.21 99 1005.8
20260505224808 60 161 0.0 0.0 0.00 0.21 0.21 99 1005.9
20260505224306 60 161 0.0 0.0 0.00 0.21 0.21 98 1005.7
20260505223803 61 161 0.0 0.0 0.00 0.21 0.21 97 1005.4
20260505223300 61 161 0.0 0.0 0.00 0.21 0.21 96 1004.9
20260505222755 61 161 0.0 0.0 0.00 0.21 0.21 97 1005.1
20260505222252 62 161 0.0 1.0 0.00 0.21 0.21 96 1005.3
20260505221749 61 161 0.0 0.0 0.00 0.21 0.21 95 1005.1
20260505221245 61 161 0.0 0.0 0.00 0.21 0.21 96 1005.0
20260505220742 62 138 0.0 0.0 0.00 0.21 0.21 94 1004.8
20260505220239 62 138 1.0 1.0 0.00 0.21 0.21 94 1004.7
20260505215738 62 113 1.0 1.0 0.00 0.21 0.21 93 1004.7
20260505215235 63 136 3.0 3.0 0.00 0.21 0.21 93 1004.5
20260505214733 63 132 2.0 2.0 0.00 0.21 0.21 93 1004.7
20260505214230 63 132 2.0 2.0 0.00 0.21 0.21 96 1004.7
20260505213727 63 141 3.0 3.0 0.00 0.21 0.21 93 1004.5
20260505213224 63 133 2.0 3.0 0.00 0.21 0.21 94 1005.0
20260505212720 62 153 0.0 0.0 0.00 0.21 0.21 95 1004.8
20260505212218 62 157 2.0 2.0 0.00 0.21 0.21 97 1004.9
20260505211715 62 73 1.0 2.0 0.00 0.21 0.21 96 1005.1
20260505211212 61 66 0.0 0.0 0.00 0.21 0.21 98 1005.0
20260505210708 61 66 0.0 0.0 0.00 0.21 0.21 98 1005.0
20260505210205 61 66 0.0 0.0 0.00 0.21 0.21 99 1004.8
20260505205703 60 66 0.0 0.0 0.07 0.21 0.21 98 1004.9
20260505205201 60 66 0.0 0.0 0.07 0.21 0.21 97 1005.1
20260505204656 60 66 1.0 1.0 0.00 0.20 0.20 97 1005.1
20260505204154 60 66 1.0 1.0 0.00 0.20 0.20 96 1005.1
20260505203651 60 66 0.0 0.0 0.00 0.20 0.20 97 1005.4
20260505203143 60 65 0.0 0.0 0.05 0.20 0.20 96 1005.4
20260505202638 59 202 0.0 0.0 0.05 0.20 0.20 95 1005.7
20260505202134 59 154 2.0 3.0 0.07 0.19 0.19 94 1005.7
20260505201631 59 320 3.0 3.0 0.38 0.19 0.19 93 1005.9
20260505201129 59 182 2.0 3.0 0.61 0.19 0.19 93 1005.8
20260505200627 62 118 3.0 3.0 0.31 0.14 0.14 87 1005.8
20260505200124 71 297 4.0 4.0 0.05 0.09 0.09 57 1004.2
20260505195620 72 248 3.0 4.0 0.05 0.09 0.09 52 1003.7
20260505195117 73 326 3.0 3.0 0.00 0.08 0.08 52 1003.5
20260505194614 73 279 1.0 2.0 0.00 0.08 0.08 49 1003.2
20260505194110 73 219 2.0 3.0 0.00 0.08 0.08 48 1003.3
20260505193607 73 271 3.0 3.0 0.00 0.08 0.08 49 1003.1
20260505193104 74 269 8.0 10.0 0.00 0.08 0.08 48 1003.1
20260505192603 74 81 2.0 3.0 0.00 0.08 0.08 50 1003.3
20260505192100 75 277 4.0 4.0 0.00 0.08 0.08 52 1003.2
20260505191558 74 234 5.0 7.0 0.00 0.08 0.08 49 1003.4
20260505191055 74 293 5.0 6.0 0.00 0.08 0.08 53 1003.1
20260505190550 73 165 1.0 2.0 0.00 0.08 0.08 56 1003.2
20260505190046 73 266 3.0 4.0 0.00 0.08 0.08 58 1003.3
20260505185543 73 221 2.0 2.0 0.00 0.08 0.08 63 1003.4
20260505185040 71 155 0.0 1.0 0.00 0.08 0.08 75 1003.5
20260505184537 70 161 0.0 1.0 0.00 0.08 0.08 67 1003.9
20260505184033 69 164 3.0 3.0 0.00 0.08 0.08 68 1004.2
20260505183530 69 160 3.0 3.0 0.00 0.08 0.08 73 1004.3
20260505183028 68 131 3.0 3.0 0.00 0.08 0.08 79 1004.4
20260505182524 68 144 0.0 1.0 0.07 0.08 0.08 73 1004.3
20260505182020 69 221 2.0 3.0 0.07 0.08 0.08 66 1004.6
20260505181517 69 189 0.0 1.0 0.00 0.07 0.07 65 1004.3
20260505181015 68 252 9.0 13.0 0.00 0.07 0.07 67 1004.8
20260505180510 72 278 2.0 4.0 0.00 0.07 0.07 62 1004.9
20260505180008 73 315 4.0 6.0 0.00 0.07 0.07 52 1004.6
20260505175502 73 181 4.0 7.0 0.00 0.07 0.07 50 1004.5
20260505174959 73 101 3.0 4.0 0.00 0.07 0.07 52 1004.2
20260505174456 73 149 2.0 2.0 0.00 0.07 0.07 52 1004.5
20260505173947 73 268 5.0 7.0 0.00 0.07 0.07 51 1004.5
20260505173444 73 202 3.0 4.0 0.00 0.07 0.07 51 1004.6
20260505172941 73 197 4.0 4.0 0.00 0.07 0.07 51 1004.5
20260505172439 73 293 2.0 3.0 0.00 0.07 0.07 51 1004.4
20260505171938 73 257 10.0 13.0 0.00 0.07 0.07 50 1004.5
20260505171436 74 317 5.0 8.0 0.00 0.07 0.07 50 1004.2
20260505170932 75 210 4.0 6.0 0.00 0.07 0.07 50 1003.8
20260505170429 75 193 3.0 7.0 0.00 0.07 0.07 52 1003.8
20260505165924 75 196 6.0 7.0 0.00 0.07 0.07 50 1003.8
20260505165420 75 233 4.0 6.0 0.00 0.07 0.07 48 1004.1
20260505164916 76 264 4.0 7.0 0.00 0.07 0.07 49 1004.2
20260505164413 75 292 2.0 3.0 0.00 0.07 0.07 49 1004.1
20260505163911 75 200 6.0 8.0 0.00 0.07 0.07 50 1004.2
20260505163410 75 156 4.0 8.0 0.00 0.07 0.07 51 1004.3
20260505162908 75 261 7.0 8.0 0.00 0.07 0.07 49 1004.4
20260505162404 75 304 12.0 16.0 0.00 0.07 0.07 50 1004.7
20260505161901 76 210 1.0 1.0 0.00 0.07 0.07 49 1004.4
20260505161358 75 106 2.0 3.0 0.00 0.07 0.07 47 1004.4
20260505160855 75 208 3.0 4.0 0.00 0.07 0.07 51 1004.6
20260505160353 75 264 4.0 6.0 0.00 0.07 0.07 52 1004.6
20260505153332 73 317 9.0 10.0 0.00 0.07 0.07 50 1004.8
20260505152828 74 270 10.0 14.0 0.00 0.07 0.07 48 1004.8
20260505152325 74 195 7.0 10.0 0.00 0.07 0.07 50 1004.7
20260505151820 74 231 5.0 7.0 0.00 0.07 0.07 48 1004.7
20260505151317 73 197 4.0 7.0 0.00 0.07 0.07 49 1004.7
20260505150813 74 213 3.0 3.0 0.00 0.07 0.07 50 1004.6
20260505150310 73 172 2.0 2.0 0.00 0.07 0.07 51 1004.5
20260505140235 69 286 4.0 6.0 0.00 0.07 0.07 62 1005.4
20260505130159 58 169 0.0 0.0 0.00 0.07 0.07 95 1006.0
20260505124649 56 169 0.0 0.0 0.00 0.07 0.07 99 1006.1
20260505124145 56 169 0.0 0.0 0.00 0.07 0.07 98 1006.0
20260505123641 55 169 0.0 0.0 0.00 0.07 0.07 98 1005.9
20260505123138 55 169 0.0 0.0 0.00 0.07 0.07 98 1005.9
20260505122634 55 186 0.0 0.0 0.00 0.07 0.07 97 1005.9
20260505122132 55 186 0.0 0.0 0.00 0.07 0.07 95 1006.0
20260505121623 55 168 0.0 0.0 0.24 0.07 0.07 96 1005.7
20260505121120 56 143 1.0 1.0 0.42 0.07 0.07 90 1005.6
20260505120615 59 122 1.0 1.0 0.19 0.03 0.03 83 1006.1
20260505120111 59 208 2.0 2.0 0.00 0.00 0.00 77 1006.7
20260505115606 60 117 2.0 2.0 0.00 0.00 0.00 73 1006.0
20260505115104 60 142 0.0 1.0 0.00 0.00 0.00 71 1006.1
20260505114601 60 262 2.0 3.0 0.00 0.00 0.00 72 1006.0
20260505114057 60 136 3.0 4.0 0.00 0.00 0.00 73 1005.9
20260505113553 59 240 0.0 1.0 0.00 0.00 0.00 72 1005.9
20260505113050 59 243 1.0 1.0 0.00 0.00 0.00 73 1005.8
20260505112546 58 102 1.0 2.0 0.00 0.00 0.00 76 1005.9
20260505112044 58 139 0.0 1.0 0.00 0.00 0.00 77 1006.1
20260505111538 56 151 1.0 1.0 0.00 0.00 0.00 78 1006.1
20260505111035 55 151 0.0 0.0 0.00 0.00 0.00 80 1006.0
20260505110531 55 132 0.0 0.0 0.00 0.00 0.00 85 1005.7
20260505102004 46 168 0.0 0.0 0.00 0.00 0.00 98 1005.6
20260505101503 46 141 0.0 0.0 0.00 0.00 0.00 98 1005.2
20260505100958 45 141 0.0 0.0 0.00 0.00 0.00 98 1005.2
20260505100455 46 141 0.0 1.0 0.00 0.00 0.00 98 1005.1
20260505095951 46 142 0.0 0.0 0.00 0.00 0.00 98 1005.0
20260505095448 46 142 0.0 0.0 0.00 0.00 0.00 98 1004.8
20260505094944 46 142 0.0 0.0 0.00 0.00 0.00 98 1004.9
20260505094441 46 141 0.0 0.0 0.00 0.00 0.00 98 1004.8
20260505093937 46 141 0.0 0.0 0.00 0.00 0.00 97 1004.7
20260505093434 46 141 0.0 0.0 0.00 0.00 0.00 98 1004.8
20260505092931 46 140 1.0 1.0 0.00 0.00 0.00 98 1004.9
20260505092429 47 140 0.0 0.0 0.00 0.00 0.00 98 1004.6
20260505091926 47 140 0.0 0.0 0.00 0.00 0.00 98 1004.8
20260505091424 47 140 0.0 0.0 0.00 0.00 0.00 97 1004.7
20260505090921 48 140 0.0 0.0 0.00 0.00 0.00 97 1004.8
20260505090420 48 140 0.0 0.0 0.00 0.00 0.00 97 1004.5
20260505085917 48 140 0.0 0.0 0.00 0.00 0.00 97 1004.7
20260505085415 48 140 0.0 0.0 0.00 0.00 0.00 97 1004.7
20260505084912 49 140 0.0 0.0 0.00 0.00 0.00 96 1004.7
20260505084410 49 140 0.0 0.0 0.00 0.00 0.00 95 1004.7
20260505083908 49 140 0.0 0.0 0.00 0.00 0.00 93 1004.7
20260505083406 50 140 0.0 0.0 0.00 0.00 0.00 92 1004.8
20260505082901 50 151 0.0 0.0 0.00 0.00 0.00 93 1004.7
20260505082357 50 132 0.0 1.0 0.00 0.00 0.00 93 1004.6
20260505081854 51 141 0.0 0.0 0.00 0.00 0.00 94 1004.7
20260505081351 51 141 0.0 0.0 0.00 0.00 0.00 93 1004.6
20260505080848 50 141 0.0 0.0 0.00 0.00 0.00 93 1004.7
20260505080343 50 140 1.0 1.0 0.00 0.00 0.00 92 1004.4
20260505075839 51 141 0.0 0.0 0.00 0.00 0.00 92 1004.7
20260505075336 51 139 0.0 0.0 0.00 0.00 0.00 92 1004.7
20260505074833 52 139 0.0 0.0 0.00 0.00 0.00 91 1004.5
20260505074330 53 131 0.0 0.0 0.00 0.00 0.00 86 1004.6
20260505073828 54 174 0.0 0.0 0.00 0.00 0.00 82 1004.9
20260505073326 56 159 0.0 1.0 0.00 0.00 0.00 75 1004.8
20260505072822 56 133 0.0 0.0 0.00 0.00 0.00 69 1004.8
20260505072319 55 210 1.0 1.0 0.00 0.00 0.00 71 1004.8
20260505071815 55 135 1.0 2.0 0.00 0.00 0.00 70 1004.9
20260505071311 54 137 1.0 1.0 0.00 0.00 0.00 71 1004.8
20260505070809 54 136 0.0 0.0 0.00 0.00 0.00 69 1004.8
20260505070306 54 168 0.0 1.0 0.00 0.00 0.00 73 1004.9
20260505065800 54 137 1.0 1.0 0.00 0.00 0.00 70 1005.1
20260505065258 53 128 1.0 2.0 0.00 0.00 0.00 72 1005.1
20260505064755 54 117 0.0 1.0 0.00 0.00 0.00 69 1005.1
20260505064252 54 144 0.0 0.0 0.00 0.00 0.00 71 1005.1
20260505063750 55 128 0.0 1.0 0.00 0.00 0.00 69 1004.9
20260505063246 55 141 0.0 0.0 0.00 0.00 0.00 68 1004.8
20260505062743 55 191 1.0 1.0 0.00 0.00 0.00 69 1004.8
20260505062240 56 136 0.0 1.0 0.00 0.00 0.00 68 1004.8
20260505061737 55 191 0.0 0.0 0.00 0.00 0.00 69 1004.8
20260505061235 55 147 1.0 1.0 0.00 0.00 0.00 68 1004.8
20260505060732 55 162 1.0 1.0 0.00 0.00 0.00 69 1004.7
20260505060229 55 121 0.0 1.0 0.00 0.00 0.00 67 1005.0
20260505055724 55 119 1.0 1.0 0.00 0.00 0.00 67 1004.9
20260505055221 54 200 0.0 0.0 0.00 0.00 0.00 72 1004.9
20260505054718 53 167 0.0 1.0 0.00 0.00 0.00 74 1005.0
20260505054216 53 148 0.0 1.0 0.00 0.00 0.00 72 1005.0
20260505053714 54 127 2.0 2.0 0.00 0.00 0.00 72 1005.0
20260505053210 55 153 0.0 1.0 0.00 0.00 0.00 71 1005.0
20260505052708 55 144 1.0 2.0 0.00 0.00 0.00 69 1005.0
20260505052204 56 155 0.0 1.0 0.00 0.00 0.00 66 1005.0
20260505051701 56 158 2.0 3.0 0.00 0.00 0.00 65 1005.3
20260505051159 57 116 1.0 1.0 0.00 0.00 0.00 65 1005.4
20260505050657 57 148 0.0 0.0 0.00 0.00 0.00 64 1005.3
20260505050155 56 144 2.0 4.0 0.00 0.00 0.00 64 1005.3
20260505041625 57 134 0.0 0.0 0.00 0.00 0.00 65 1005.2
20260505041122 58 134 0.0 0.0 0.00 0.00 0.00 63 1005.1
20260505040619 58 174 0.0 0.0 0.00 0.00 0.00 64 1005.3
20260505040116 58 157 0.0 1.0 0.00 0.00 0.00 61 1004.9
20260505035613 58 165 0.0 1.0 0.00 0.00 0.00 64 1005.0
20260505035109 58 161 1.0 1.0 0.00 0.00 0.00 63 1004.8
20260505034606 59 153 0.0 0.0 0.00 0.00 0.00 63 1004.8
20260505034102 59 225 2.0 2.0 0.00 0.00 0.00 60 1004.7
20260505033559 59 136 0.0 1.0 0.00 0.00 0.00 64 1004.9
20260505033058 59 185 0.0 0.0 0.00 0.00 0.00 60 1005.0
20260505032555 58 240 2.0 2.0 0.00 0.00 0.00 60 1004.9
20260505032051 59 160 0.0 1.0 0.00 0.00 0.00 61 1005.0
20260505031549 59 193 0.0 0.0 0.00 0.00 0.00 60 1005.0
20260505031045 59 144 1.0 1.0 0.00 0.00 0.00 61 1004.8
20260505030542 60 146 1.0 1.0 0.00 0.00 0.00 59 1005.0
20260505030038 59 182 0.0 0.0 0.00 0.00 0.00 59 1005.0
20260505025534 58 220 1.0 1.0 0.00 0.00 0.00 60 1004.9
20260505025033 59 151 0.0 0.0 0.00 0.00 0.00 61 1005.0
20260505024530 59 189 0.0 1.0 0.00 0.00 0.00 61 1004.9
20260505024027 59 196 0.0 1.0 0.00 0.00 0.00 63 1005.2
20260505023524 59 150 0.0 0.0 0.00 0.00 0.00 60 1005.0
20260505023021 58 172 1.0 1.0 0.00 0.00 0.00 62 1004.9
20260505022519 58 132 0.0 1.0 0.00 0.00 0.00 65 1005.1
20260505022016 57 168 1.0 1.0 0.00 0.00 0.00 63 1005.0
20260505021512 55 145 1.0 1.0 0.00 0.00 0.00 63 1005.2
20260505021009 55 196 0.0 0.0 0.00 0.00 0.00 69 1005.4
20260505020503 55 158 1.0 1.0 0.00 0.00 0.00 67 1005.2
20260505020000 52 138 1.0 2.0 0.00 0.00 0.00 72 1005.4
20260505015458 51 180 0.0 0.0 0.00 0.00 0.00 79 1005.2
20260505014954 50 149 0.0 0.0 0.00 0.00 0.00 81 1005.1
20260505014451 50 177 0.0 1.0 0.00 0.00 0.00 81 1005.0
20260505013949 51 181 0.0 0.0 0.00 0.00 0.00 80 1005.1
20260505013446 51 181 0.0 0.0 0.00 0.00 0.00 79 1005.2
20260505012943 51 181 1.0 1.0 0.00 0.00 0.00 78 1005.1
20260505012441 52 181 0.0 0.0 0.00 0.00 0.00 78 1005.1
20260505011938 52 181 0.0 0.0 0.00 0.00 0.00 76 1004.9
20260505011433 52 181 0.0 1.0 0.00 0.00 0.00 76 1004.9
20260505010930 53 181 0.0 0.0 0.00 0.00 0.00 75 1004.8
20260505010426 53 182 0.0 0.0 0.00 0.00 0.00 73 1004.9
20260505005922 55 177 0.0 0.0 0.00 0.00 0.00 72 1004.8
20260505005419 55 179 0.0 0.0 0.00 0.00 0.00 71 1004.8
20260505004917 57 181 1.0 1.0 0.00 0.00 0.00 66 1004.7
20260505004413 58 161 0.0 0.0 0.00 0.00 0.00 62 1004.8
20260505003910 59 161 0.0 0.0 0.00 0.00 0.00 59 1004.6
20260505003407 60 161 0.0 0.0 0.00 0.00 0.00 59 1004.5
20260505002904 60 150 0.0 1.0 0.00 0.00 0.00 53 1004.5
20260505002400 60 135 0.0 1.0 0.00 0.00 0.00 55 1004.5
20260505001859 61 156 0.0 0.0 0.00 0.00 0.00 57 1004.6
20260505001355 62 158 0.0 0.0 0.00 0.00 0.00 53 1004.5
20260505000853 62 219 1.0 1.0 0.00 0.00 0.00 52 1004.6
20260505000351 62 200 0.0 1.0 0.00 0.00 0.00 52 1004.4
20260504235847 62 175 0.0 0.0 0.00 0.00 0.00 54 1004.2
20260504235344 63 177 0.0 0.0 0.00 0.00 0.00 52 1004.4
20260504234840 64 185 1.0 1.0 0.00 0.00 0.00 51 1004.3
20260504234338 65 155 0.0 0.0 0.00 0.00 0.00 49 1004.1
20260504233835 66 160 0.0 0.0 0.00 0.00 0.00 45 1004.1
20260504233330 66 155 1.0 2.0 0.00 0.00 0.00 44 1004.2
20260504232827 67 135 3.0 3.0 0.00 0.00 0.00 43 1004.0
20260504232324 67 158 1.0 2.0 0.00 0.00 0.00 44 1004.0